Year,Month,Day,Hour,Minute,Value (Times are PST for temperature in C)
2018,05,05,00,00,8.50
2018,05,05,00,01,8.40
2018,05,05,00,02,8.40
2018,05,05,00,03,8.40
2018,05,05,00,04,8.40
2018,05,05,00,05,8.40
2018,05,05,00,06,8.40
2018,05,05,00,07,8.40
2018,05,05,00,08,8.40
2018,05,05,00,09,8.40
2018,05,05,00,10,8.30
2018,05,05,00,11,8.30
2018,05,05,00,12,8.30
2018,05,05,00,13,8.30
2018,05,05,00,14,8.30
2018,05,05,00,15,8.30
2018,05,05,00,16,8.30
2018,05,05,00,17,8.30
2018,05,05,00,18,8.20
2018,05,05,00,19,8.20
2018,05,05,00,20,8.20
2018,05,05,00,21,8.20
2018,05,05,00,22,8.20
2018,05,05,00,23,8.20
2018,05,05,00,24,8.20
2018,05,05,00,25,8.10
2018,05,05,00,26,8.10
2018,05,05,00,27,8.10
2018,05,05,00,28,8.10
2018,05,05,00,29,8.10
2018,05,05,00,30,8.00
2018,05,05,00,31,8.00
2018,05,05,00,32,8.00
2018,05,05,00,33,7.90
2018,05,05,00,34,7.90
2018,05,05,00,35,7.90
2018,05,05,00,36,7.90
2018,05,05,00,37,7.90
2018,05,05,00,38,7.80
2018,05,05,00,39,7.80
2018,05,05,00,40,7.80
2018,05,05,00,41,7.80
2018,05,05,00,42,7.80
2018,05,05,00,43,7.80
2018,05,05,00,44,7.80
2018,05,05,00,45,7.80
2018,05,05,00,46,7.70
2018,05,05,00,47,7.70
2018,05,05,00,48,7.70
2018,05,05,00,49,7.70
2018,05,05,00,50,7.70
2018,05,05,00,51,7.70
2018,05,05,00,52,7.70
2018,05,05,00,53,7.70
2018,05,05,00,54,7.70
2018,05,05,00,55,7.70
2018,05,05,00,56,7.70
2018,05,05,00,57,7.70
2018,05,05,00,58,7.70
2018,05,05,00,59,7.70
2018,05,05,01,00,7.70
2018,05,05,01,01,7.60
2018,05,05,01,02,7.60
2018,05,05,01,03,7.60
2018,05,05,01,04,7.60
2018,05,05,01,05,7.60
2018,05,05,01,06,7.60
2018,05,05,01,07,7.60
2018,05,05,01,08,7.50
2018,05,05,01,09,7.50
2018,05,05,01,10,7.50
2018,05,05,01,11,7.50
2018,05,05,01,12,7.50
2018,05,05,01,13,7.50
2018,05,05,01,14,7.40
2018,05,05,01,15,7.40
2018,05,05,01,16,7.40
2018,05,05,01,17,7.40
2018,05,05,01,18,7.40
2018,05,05,01,19,7.40
2018,05,05,01,20,7.30
2018,05,05,01,21,7.30
2018,05,05,01,22,7.30
2018,05,05,01,23,7.30
2018,05,05,01,24,7.30
2018,05,05,01,25,7.30
2018,05,05,01,26,7.30
2018,05,05,01,27,7.30
2018,05,05,01,28,7.30
2018,05,05,01,29,7.30
2018,05,05,01,30,7.30
2018,05,05,01,31,7.30
2018,05,05,01,32,7.30
2018,05,05,01,33,7.30
2018,05,05,01,34,7.30
2018,05,05,01,35,7.30
2018,05,05,01,36,7.30
2018,05,05,01,37,7.30
2018,05,05,01,38,7.20
2018,05,05,01,39,7.20
2018,05,05,01,40,7.20
2018,05,05,01,41,7.20
2018,05,05,01,42,7.20
2018,05,05,01,43,7.20
2018,05,05,01,44,7.20
2018,05,05,01,45,7.20
2018,05,05,01,46,7.20
2018,05,05,01,47,7.20
2018,05,05,01,48,7.20
2018,05,05,01,49,7.20
2018,05,05,01,50,7.20
2018,05,05,01,51,7.20
2018,05,05,01,52,7.20
2018,05,05,01,53,7.20
2018,05,05,01,54,7.20
2018,05,05,01,55,7.20
2018,05,05,01,56,7.20
2018,05,05,01,57,7.20
2018,05,05,01,58,7.20
2018,05,05,01,59,7.20
2018,05,05,02,00,7.10
2018,05,05,02,01,7.10
2018,05,05,02,02,7.10
2018,05,05,02,03,7.10
2018,05,05,02,04,7.10
2018,05,05,02,05,7.10
2018,05,05,02,06,7.10
2018,05,05,02,07,7.00
2018,05,05,02,08,7.00
2018,05,05,02,09,7.00
2018,05,05,02,10,7.00
2018,05,05,02,11,7.00
2018,05,05,02,12,6.90
2018,05,05,02,13,6.90
2018,05,05,02,14,6.90
2018,05,05,02,15,6.90
2018,05,05,02,16,6.90
2018,05,05,02,17,6.90
2018,05,05,02,18,6.90
2018,05,05,02,19,6.90
2018,05,05,02,20,6.90
2018,05,05,02,21,6.80
2018,05,05,02,22,6.80
2018,05,05,02,23,6.80
2018,05,05,02,24,6.80
2018,05,05,02,25,6.80
2018,05,05,02,26,6.80
2018,05,05,02,27,6.80
2018,05,05,02,28,6.80
2018,05,05,02,29,6.80
2018,05,05,02,30,6.80
2018,05,05,02,31,6.80
2018,05,05,02,32,6.80
2018,05,05,02,33,6.80
2018,05,05,02,34,6.80
2018,05,05,02,35,6.80
2018,05,05,02,36,6.80
2018,05,05,02,37,6.80
2018,05,05,02,38,6.80
2018,05,05,02,39,6.80
2018,05,05,02,40,6.80
2018,05,05,02,41,6.80
2018,05,05,02,42,6.80
2018,05,05,02,43,6.80
2018,05,05,02,44,6.80
2018,05,05,02,45,6.80
2018,05,05,02,46,6.80
2018,05,05,02,47,6.80
2018,05,05,02,48,6.80
2018,05,05,02,49,6.80
2018,05,05,02,50,6.80
2018,05,05,02,51,6.80
2018,05,05,02,52,6.80
2018,05,05,02,53,6.80
2018,05,05,02,54,6.80
2018,05,05,02,55,6.80
2018,05,05,02,56,6.80
2018,05,05,02,57,6.80
2018,05,05,02,58,6.80
2018,05,05,02,59,6.80
2018,05,05,03,00,6.80
2018,05,05,03,01,6.70
2018,05,05,03,02,6.70
2018,05,05,03,03,6.70
2018,05,05,03,04,6.70
2018,05,05,03,05,6.70
2018,05,05,03,06,6.70
2018,05,05,03,07,6.70
2018,05,05,03,08,6.70
2018,05,05,03,09,6.70
2018,05,05,03,10,6.70
2018,05,05,03,11,6.60
2018,05,05,03,12,6.60
2018,05,05,03,13,6.60
2018,05,05,03,14,6.60
2018,05,05,03,15,6.60
2018,05,05,03,16,6.60
2018,05,05,03,17,6.60
2018,05,05,03,18,6.60
2018,05,05,03,19,6.60
2018,05,05,03,20,6.60
2018,05,05,03,21,6.60
2018,05,05,03,22,6.60
2018,05,05,03,23,6.60
2018,05,05,03,24,6.60
2018,05,05,03,25,6.60
2018,05,05,03,26,6.60
2018,05,05,03,27,6.50
2018,05,05,03,28,6.50
2018,05,05,03,29,6.50
2018,05,05,03,30,6.50
2018,05,05,03,31,6.40
2018,05,05,03,32,6.40
2018,05,05,03,33,6.40
2018,05,05,03,34,6.40
2018,05,05,03,35,6.40
2018,05,05,03,36,6.40
2018,05,05,03,37,6.40
2018,05,05,03,38,6.40
2018,05,05,03,39,6.40
2018,05,05,03,40,6.30
2018,05,05,03,41,6.30
2018,05,05,03,42,6.30
2018,05,05,03,43,6.30
2018,05,05,03,44,6.30
2018,05,05,03,45,6.30
2018,05,05,03,46,6.30
2018,05,05,03,47,6.30
2018,05,05,03,48,6.30
2018,05,05,03,49,6.30
2018,05,05,03,50,6.30
2018,05,05,03,51,6.30
2018,05,05,03,52,6.30
2018,05,05,03,53,6.20
2018,05,05,03,54,6.20
2018,05,05,03,55,6.20
2018,05,05,03,56,6.20
2018,05,05,03,57,6.20
2018,05,05,03,58,6.20
2018,05,05,03,59,6.10
2018,05,05,04,00,6.10
2018,05,05,04,01,6.10
2018,05,05,04,02,6.10
2018,05,05,04,03,6.10
2018,05,05,04,04,6.10
2018,05,05,04,05,6.10
2018,05,05,04,06,6.00
2018,05,05,04,07,6.00
2018,05,05,04,08,6.00
2018,05,05,04,09,6.00
2018,05,05,04,10,6.00
2018,05,05,04,11,6.00
2018,05,05,04,12,6.00
2018,05,05,04,13,6.00
2018,05,05,04,14,5.90
2018,05,05,04,15,5.90
2018,05,05,04,16,5.90
2018,05,05,04,17,5.90
2018,05,05,04,18,5.90
2018,05,05,04,19,5.90
2018,05,05,04,20,5.90
2018,05,05,04,21,5.90
2018,05,05,04,22,5.90
2018,05,05,04,23,5.90
2018,05,05,04,24,5.90
2018,05,05,04,25,5.90
2018,05,05,04,26,5.90
2018,05,05,04,27,5.90
2018,05,05,04,28,5.90
2018,05,05,04,29,5.90
2018,05,05,04,30,5.90
2018,05,05,04,31,5.90
2018,05,05,04,32,5.90
2018,05,05,04,33,5.90
2018,05,05,04,34,5.90
2018,05,05,04,35,5.90
2018,05,05,04,36,5.90
2018,05,05,04,37,5.90
2018,05,05,04,38,5.90
2018,05,05,04,39,5.80
2018,05,05,04,40,5.80
2018,05,05,04,41,5.80
2018,05,05,04,42,5.80
2018,05,05,04,43,5.80
2018,05,05,04,44,5.80
2018,05,05,04,45,5.80
2018,05,05,04,46,5.80
2018,05,05,04,47,5.80
2018,05,05,04,48,5.80
2018,05,05,04,49,5.80
2018,05,05,04,50,5.80
2018,05,05,04,51,5.80
2018,05,05,04,52,5.80
2018,05,05,04,53,5.80
2018,05,05,04,54,5.80
2018,05,05,04,55,5.80
2018,05,05,04,56,5.80
2018,05,05,04,57,5.80
2018,05,05,04,58,5.80
2018,05,05,04,59,5.80
2018,05,05,05,00,5.80
2018,05,05,05,01,5.70
2018,05,05,05,02,5.70
2018,05,05,05,03,5.70
2018,05,05,05,04,5.70
2018,05,05,05,05,5.70
2018,05,05,05,06,5.70
2018,05,05,05,07,5.60
2018,05,05,05,08,5.60
2018,05,05,05,09,5.60
2018,05,05,05,10,5.60
2018,05,05,05,11,5.60
2018,05,05,05,12,5.60
2018,05,05,05,13,5.60
2018,05,05,05,14,5.60
2018,05,05,05,15,5.60
2018,05,05,05,16,5.60
2018,05,05,05,17,5.60
2018,05,05,05,18,5.60
2018,05,05,05,19,5.60
2018,05,05,05,20,5.60
2018,05,05,05,21,5.60
2018,05,05,05,22,5.60
2018,05,05,05,23,5.60
2018,05,05,05,24,5.60
2018,05,05,05,25,5.60
2018,05,05,05,26,5.60
2018,05,05,05,27,5.70
2018,05,05,05,28,5.70
2018,05,05,05,29,5.70
2018,05,05,05,30,5.70
2018,05,05,05,31,5.70
2018,05,05,05,32,5.70
2018,05,05,05,33,5.70
2018,05,05,05,34,5.70
2018,05,05,05,35,5.70
2018,05,05,05,36,5.80
2018,05,05,05,37,5.80
2018,05,05,05,38,5.90
2018,05,05,05,39,5.90
2018,05,05,05,40,6.10
2018,05,05,05,41,6.30
2018,05,05,05,42,6.40
2018,05,05,05,43,6.50
2018,05,05,05,44,6.60
2018,05,05,05,45,6.70
2018,05,05,05,46,6.80
2018,05,05,05,47,6.80
2018,05,05,05,48,6.80
2018,05,05,05,49,6.90
2018,05,05,05,50,6.90
2018,05,05,05,51,6.90
2018,05,05,05,52,7.00
2018,05,05,05,53,7.00
2018,05,05,05,54,7.10
2018,05,05,05,55,7.10
2018,05,05,05,56,7.20
2018,05,05,05,57,7.20
2018,05,05,05,58,7.30
2018,05,05,05,59,7.30
2018,05,05,06,00,7.30
2018,05,05,06,01,7.30
2018,05,05,06,02,7.30
2018,05,05,06,03,7.30
2018,05,05,06,04,7.30
2018,05,05,06,05,7.30
2018,05,05,06,06,7.40
2018,05,05,06,07,7.40
2018,05,05,06,08,7.40
2018,05,05,06,09,7.40
2018,05,05,06,10,7.50
2018,05,05,06,11,7.50
2018,05,05,06,12,7.50
2018,05,05,06,13,7.50
2018,05,05,06,14,7.60
2018,05,05,06,15,7.60
2018,05,05,06,16,7.60
2018,05,05,06,17,7.60
2018,05,05,06,18,7.60
2018,05,05,06,19,7.60
2018,05,05,06,20,7.60
2018,05,05,06,21,7.60
2018,05,05,06,22,7.60
2018,05,05,06,23,7.60
2018,05,05,06,24,7.60
2018,05,05,06,25,7.60
2018,05,05,06,26,7.60
2018,05,05,06,27,7.60
2018,05,05,06,28,7.50
2018,05,05,06,29,7.60
2018,05,05,06,30,7.60
2018,05,05,06,31,7.60
2018,05,05,06,32,7.60
2018,05,05,06,33,7.60
2018,05,05,06,34,7.70
2018,05,05,06,35,7.70
2018,05,05,06,36,7.70
2018,05,05,06,37,7.80
2018,05,05,06,38,7.80
2018,05,05,06,39,7.90
2018,05,05,06,40,8.00
2018,05,05,06,41,8.00
2018,05,05,06,42,8.10
2018,05,05,06,43,8.10
2018,05,05,06,44,8.20
2018,05,05,06,45,8.20
2018,05,05,06,46,8.30
2018,05,05,06,47,8.30
2018,05,05,06,48,8.30
2018,05,05,06,49,8.40
2018,05,05,06,50,8.40
2018,05,05,06,51,8.40
2018,05,05,06,52,8.40
2018,05,05,06,53,8.40
2018,05,05,06,54,8.40
2018,05,05,06,55,8.50
2018,05,05,06,56,8.50
2018,05,05,06,57,8.50
2018,05,05,06,58,8.60
2018,05,05,06,59,8.60
2018,05,05,07,00,8.60
2018,05,05,07,01,8.60
2018,05,05,07,02,8.60
2018,05,05,07,03,8.70
2018,05,05,07,04,8.70
2018,05,05,07,05,8.70
2018,05,05,07,06,8.70
2018,05,05,07,07,8.80
2018,05,05,07,08,8.80
2018,05,05,07,09,8.80
2018,05,05,07,10,8.90
2018,05,05,07,11,8.90
2018,05,05,07,12,9.00
2018,05,05,07,13,9.10
2018,05,05,07,14,9.10
2018,05,05,07,15,9.20
2018,05,05,07,16,9.30
2018,05,05,07,17,9.30
2018,05,05,07,18,9.30
2018,05,05,07,19,9.40
2018,05,05,07,20,9.40
2018,05,05,07,21,9.50
2018,05,05,07,22,9.50
2018,05,05,07,23,9.60
2018,05,05,07,24,9.60
2018,05,05,07,25,9.70
2018,05,05,07,26,9.70
2018,05,05,07,27,9.80
2018,05,05,07,28,9.80
2018,05,05,07,29,9.80
2018,05,05,07,30,9.90
2018,05,05,07,31,10.00
2018,05,05,07,32,10.00
2018,05,05,07,33,10.10
2018,05,05,07,34,10.10
2018,05,05,07,35,10.10
2018,05,05,07,36,10.20
2018,05,05,07,37,10.20
2018,05,05,07,38,10.20
2018,05,05,07,39,10.30
2018,05,05,07,40,10.30
2018,05,05,07,41,10.40
2018,05,05,07,42,10.40
2018,05,05,07,43,10.50
2018,05,05,07,44,10.50
2018,05,05,07,45,10.60
2018,05,05,07,46,10.60
2018,05,05,07,47,10.70
2018,05,05,07,48,10.70
2018,05,05,07,49,10.80
2018,05,05,07,50,10.80
2018,05,05,07,51,10.90
2018,05,05,07,52,10.90
2018,05,05,07,53,11.00
2018,05,05,07,54,11.00
2018,05,05,07,55,11.10
2018,05,05,07,56,11.10
2018,05,05,07,57,11.20
2018,05,05,07,58,11.20
2018,05,05,07,59,11.30
2018,05,05,08,00,11.30
2018,05,05,08,01,11.40
2018,05,05,08,02,11.40
2018,05,05,08,03,11.40
2018,05,05,08,04,11.50
2018,05,05,08,05,11.50
2018,05,05,08,06,11.60
2018,05,05,08,07,11.60
2018,05,05,08,08,11.70
2018,05,05,08,09,11.70
2018,05,05,08,10,11.80
2018,05,05,08,11,11.80
2018,05,05,08,12,11.90
2018,05,05,08,13,11.90
2018,05,05,08,14,11.90
2018,05,05,08,15,12.00
2018,05,05,08,16,12.10
2018,05,05,08,17,12.10
2018,05,05,08,18,12.20
2018,05,05,08,19,12.30
2018,05,05,08,20,12.30
2018,05,05,08,21,12.30
2018,05,05,08,22,12.40
2018,05,05,08,23,12.40
2018,05,05,08,24,12.50
2018,05,05,08,25,12.50
2018,05,05,08,26,12.50
2018,05,05,08,27,12.60
2018,05,05,08,28,12.60
2018,05,05,08,29,12.60
2018,05,05,08,30,12.70
2018,05,05,08,31,12.70
2018,05,05,08,32,12.70
2018,05,05,08,33,12.80
2018,05,05,08,34,12.80
2018,05,05,08,35,12.90
2018,05,05,08,36,13.00
2018,05,05,08,37,13.00
2018,05,05,08,38,13.10
2018,05,05,08,39,13.20
2018,05,05,08,40,13.20
2018,05,05,08,41,13.20
2018,05,05,08,42,13.30
2018,05,05,08,43,13.30
2018,05,05,08,44,13.40
2018,05,05,08,45,13.50
2018,05,05,08,46,13.50
2018,05,05,08,47,13.50
2018,05,05,08,48,13.60
2018,05,05,08,49,13.60
2018,05,05,08,50,13.70
2018,05,05,08,51,13.70
2018,05,05,08,52,13.70
2018,05,05,08,53,13.80
2018,05,05,08,54,13.80
2018,05,05,08,55,13.90
2018,05,05,08,56,13.90
2018,05,05,08,57,13.90
2018,05,05,08,58,13.90
2018,05,05,08,59,13.90
2018,05,05,09,00,13.90
2018,05,05,09,01,13.90
2018,05,05,09,02,14.00
2018,05,05,09,03,14.00
2018,05,05,09,04,14.00
2018,05,05,09,05,14.00
2018,05,05,09,06,13.90
2018,05,05,09,07,13.80
2018,05,05,09,08,13.70
2018,05,05,09,09,13.70
2018,05,05,09,10,13.80
2018,05,05,09,11,13.80
2018,05,05,09,12,13.90
2018,05,05,09,13,14.00
2018,05,05,09,14,14.10
2018,05,05,09,15,14.20
2018,05,05,09,16,14.20
2018,05,05,09,17,14.30
2018,05,05,09,18,14.30
2018,05,05,09,19,14.30
2018,05,05,09,20,14.40
2018,05,05,09,21,14.50
2018,05,05,09,22,14.60
2018,05,05,09,23,14.70
2018,05,05,09,24,14.70
2018,05,05,09,25,14.80
2018,05,05,09,26,14.80
2018,05,05,09,27,14.80
2018,05,05,09,28,14.90
2018,05,05,09,29,14.90
2018,05,05,09,30,14.90
2018,05,05,09,31,14.90
2018,05,05,09,32,14.90
2018,05,05,09,33,14.90
2018,05,05,09,34,15.00
2018,05,05,09,35,15.00
2018,05,05,09,36,15.10
2018,05,05,09,37,15.10
2018,05,05,09,38,15.20
2018,05,05,09,39,15.30
2018,05,05,09,40,15.30
2018,05,05,09,41,15.30
2018,05,05,09,42,15.40
2018,05,05,09,43,15.50
2018,05,05,09,44,15.50
2018,05,05,09,45,15.60
2018,05,05,09,46,15.50
2018,05,05,09,47,15.60
2018,05,05,09,48,15.70
2018,05,05,09,49,15.70
2018,05,05,09,50,15.80
2018,05,05,09,51,15.80
2018,05,05,09,52,15.80
2018,05,05,09,53,15.80
2018,05,05,09,54,15.70
2018,05,05,09,55,15.70
2018,05,05,09,56,15.70
2018,05,05,09,57,15.70
2018,05,05,09,58,15.80
2018,05,05,09,59,15.80
2018,05,05,10,00,15.80
2018,05,05,10,01,15.80
2018,05,05,10,02,15.80
2018,05,05,10,03,15.90
2018,05,05,10,04,16.00
2018,05,05,10,05,16.00
2018,05,05,10,06,16.00
2018,05,05,10,07,16.00
2018,05,05,10,08,15.90
2018,05,05,10,09,15.90
2018,05,05,10,10,15.90
2018,05,05,10,11,15.80
2018,05,05,10,12,15.90
2018,05,05,10,13,15.90
2018,05,05,10,14,15.90
2018,05,05,10,15,15.90
2018,05,05,10,16,15.80
2018,05,05,10,17,15.80
2018,05,05,10,18,15.80
2018,05,05,10,19,15.90
2018,05,05,10,20,15.90
2018,05,05,10,21,16.00
2018,05,05,10,22,16.10
2018,05,05,10,23,16.10
2018,05,05,10,24,16.10
2018,05,05,10,25,16.20
2018,05,05,10,26,16.30
2018,05,05,10,27,16.40
2018,05,05,10,28,16.50
2018,05,05,10,29,16.60
2018,05,05,10,30,16.70
2018,05,05,10,31,16.80
2018,05,05,10,32,16.90
2018,05,05,10,33,16.90
2018,05,05,10,34,16.90
2018,05,05,10,35,16.90
2018,05,05,10,36,17.00
2018,05,05,10,37,17.00
2018,05,05,10,38,17.10
2018,05,05,10,39,17.20
2018,05,05,10,40,17.30
2018,05,05,10,41,17.20
2018,05,05,10,42,17.30
2018,05,05,10,43,17.20
2018,05,05,10,44,17.20
2018,05,05,10,45,17.20
2018,05,05,10,46,17.30
2018,05,05,10,47,17.30
2018,05,05,10,48,17.30
2018,05,05,10,49,17.40
2018,05,05,10,50,17.40
2018,05,05,10,51,17.40
2018,05,05,10,52,17.40
2018,05,05,10,53,17.50
2018,05,05,10,54,17.60
2018,05,05,10,55,17.60
2018,05,05,10,56,17.70
2018,05,05,10,57,17.70
2018,05,05,10,58,17.70
2018,05,05,10,59,17.70
2018,05,05,11,00,17.80
2018,05,05,11,01,17.90
2018,05,05,11,02,18.00
2018,05,05,11,03,18.10
2018,05,05,11,04,18.10
2018,05,05,11,05,18.20
2018,05,05,11,06,18.20
2018,05,05,11,07,18.10
2018,05,05,11,08,18.10
2018,05,05,11,09,18.10
2018,05,05,11,10,18.10
2018,05,05,11,11,18.10
2018,05,05,11,12,18.00
2018,05,05,11,13,17.90
2018,05,05,11,14,17.70
2018,05,05,11,15,17.70
2018,05,05,11,16,17.80
2018,05,05,11,17,17.80
2018,05,05,11,18,18.00
2018,05,05,11,19,18.10
2018,05,05,11,20,18.20
2018,05,05,11,21,18.30
2018,05,05,11,22,18.30
2018,05,05,11,23,18.30
2018,05,05,11,24,18.30
2018,05,05,11,25,18.30
2018,05,05,11,26,18.20
2018,05,05,11,27,18.30
2018,05,05,11,28,18.30
2018,05,05,11,29,18.40
2018,05,05,11,30,18.40
2018,05,05,11,31,18.40
2018,05,05,11,32,18.40
2018,05,05,11,33,18.40
2018,05,05,11,34,18.50
2018,05,05,11,35,18.50
2018,05,05,11,36,18.50
2018,05,05,11,37,18.50
2018,05,05,11,38,18.50
2018,05,05,11,39,18.50
2018,05,05,11,40,18.50
2018,05,05,11,41,18.60
2018,05,05,11,42,18.60
2018,05,05,11,43,18.60
2018,05,05,11,44,18.50
2018,05,05,11,45,18.40
2018,05,05,11,46,18.30
2018,05,05,11,47,18.20
2018,05,05,11,48,18.20
2018,05,05,11,49,18.20
2018,05,05,11,50,18.30
2018,05,05,11,51,18.30
2018,05,05,11,52,18.40
2018,05,05,11,53,18.40
2018,05,05,11,54,18.30
2018,05,05,11,55,18.30
2018,05,05,11,56,18.20
2018,05,05,11,57,18.10
2018,05,05,11,58,18.10
2018,05,05,11,59,18.00
2018,05,05,12,00,18.00
2018,05,05,12,01,17.90
2018,05,05,12,02,17.80
2018,05,05,12,03,17.70
2018,05,05,12,04,17.60
2018,05,05,12,05,17.60
2018,05,05,12,06,17.60
2018,05,05,12,07,17.60
2018,05,05,12,08,17.70
2018,05,05,12,09,17.80
2018,05,05,12,10,17.90
2018,05,05,12,11,18.00
2018,05,05,12,12,18.00
2018,05,05,12,13,18.10
2018,05,05,12,14,18.20
2018,05,05,12,15,18.30
2018,05,05,12,16,18.40
2018,05,05,12,17,18.40
2018,05,05,12,18,18.40
2018,05,05,12,19,18.50
2018,05,05,12,20,18.50
2018,05,05,12,21,18.50
2018,05,05,12,22,18.50
2018,05,05,12,23,18.50
2018,05,05,12,24,18.50
2018,05,05,12,25,18.60
2018,05,05,12,26,18.70
2018,05,05,12,27,18.80
2018,05,05,12,28,18.90
2018,05,05,12,29,19.00
2018,05,05,12,30,19.10
2018,05,05,12,31,19.10
2018,05,05,12,32,19.20
2018,05,05,12,33,19.20
2018,05,05,12,34,19.30
2018,05,05,12,35,19.30
2018,05,05,12,36,19.30
2018,05,05,12,37,19.40
2018,05,05,12,38,19.40
2018,05,05,12,39,19.40
2018,05,05,12,40,19.40
2018,05,05,12,41,19.40
2018,05,05,12,42,19.30
2018,05,05,12,43,19.30
2018,05,05,12,44,19.20
2018,05,05,12,45,19.10
2018,05,05,12,46,19.10
2018,05,05,12,47,19.10
2018,05,05,12,48,19.10
2018,05,05,12,49,19.10
2018,05,05,12,50,19.10
2018,05,05,12,51,19.10
2018,05,05,12,52,19.10
2018,05,05,12,53,19.20
2018,05,05,12,54,19.10
2018,05,05,12,55,19.00
2018,05,05,12,56,18.90
2018,05,05,12,57,18.90
2018,05,05,12,58,18.90
2018,05,05,12,59,18.90
2018,05,05,13,00,19.00
2018,05,05,13,01,19.10
2018,05,05,13,02,19.10
2018,05,05,13,03,19.20
2018,05,05,13,04,19.30
2018,05,05,13,05,19.40
2018,05,05,13,06,19.40
2018,05,05,13,07,19.40
2018,05,05,13,08,19.40
2018,05,05,13,09,19.40
2018,05,05,13,10,19.50
2018,05,05,13,11,19.50
2018,05,05,13,12,19.60
2018,05,05,13,13,19.70
2018,05,05,13,14,19.70
2018,05,05,13,15,19.70
2018,05,05,13,16,19.70
2018,05,05,13,17,19.60
2018,05,05,13,18,19.40
2018,05,05,13,19,19.20
2018,05,05,13,20,19.10
2018,05,05,13,21,19.10
2018,05,05,13,22,19.00
2018,05,05,13,23,19.10
2018,05,05,13,24,19.00
2018,05,05,13,25,19.00
2018,05,05,13,26,19.10
2018,05,05,13,27,19.00
2018,05,05,13,28,19.00
2018,05,05,13,29,19.00
2018,05,05,13,30,19.00
2018,05,05,13,31,19.10
2018,05,05,13,32,19.10
2018,05,05,13,33,19.10
2018,05,05,13,34,19.10
2018,05,05,13,35,19.20
2018,05,05,13,36,19.30
2018,05,05,13,37,19.30
2018,05,05,13,38,19.30
2018,05,05,13,39,19.30
2018,05,05,13,40,19.20
2018,05,05,13,41,19.10
2018,05,05,13,42,19.00
2018,05,05,13,43,18.90
2018,05,05,13,44,18.90
2018,05,05,13,45,18.90
2018,05,05,13,46,18.90
2018,05,05,13,47,18.90
2018,05,05,13,48,18.80
2018,05,05,13,49,18.80
2018,05,05,13,50,18.90
2018,05,05,13,51,18.90
2018,05,05,13,52,19.00
2018,05,05,13,53,19.10
2018,05,05,13,54,19.10
2018,05,05,13,55,19.20
2018,05,05,13,56,19.30
2018,05,05,13,57,19.30
2018,05,05,13,58,19.40
2018,05,05,13,59,19.50
2018,05,05,14,00,19.50
2018,05,05,14,01,19.60
2018,05,05,14,02,19.70
2018,05,05,14,03,19.70
2018,05,05,14,04,19.70
2018,05,05,14,05,19.70
2018,05,05,14,06,19.70
2018,05,05,14,07,19.60
2018,05,05,14,08,19.60
2018,05,05,14,09,19.60
2018,05,05,14,10,19.60
2018,05,05,14,11,19.60
2018,05,05,14,12,19.70
2018,05,05,14,13,19.60
2018,05,05,14,14,19.50
2018,05,05,14,15,19.50
2018,05,05,14,16,19.50
2018,05,05,14,17,19.50
2018,05,05,14,18,19.60
2018,05,05,14,19,19.70
2018,05,05,14,20,19.70
2018,05,05,14,21,19.70
2018,05,05,14,22,19.70
2018,05,05,14,23,19.70
2018,05,05,14,24,19.70
2018,05,05,14,25,19.70
2018,05,05,14,26,19.70
2018,05,05,14,27,19.70
2018,05,05,14,28,19.70
2018,05,05,14,29,19.60
2018,05,05,14,30,19.50
2018,05,05,14,31,19.40
2018,05,05,14,32,19.40
2018,05,05,14,33,19.30
2018,05,05,14,34,19.20
2018,05,05,14,35,19.30
2018,05,05,14,36,19.30
2018,05,05,14,37,19.30
2018,05,05,14,38,19.20
2018,05,05,14,39,19.20
2018,05,05,14,40,19.10
2018,05,05,14,41,19.00
2018,05,05,14,42,18.90
2018,05,05,14,43,18.90
2018,05,05,14,44,18.90
2018,05,05,14,45,19.00
2018,05,05,14,46,19.10
2018,05,05,14,47,19.10
2018,05,05,14,48,19.20
2018,05,05,14,49,19.30
2018,05,05,14,50,19.30
2018,05,05,14,51,19.30
2018,05,05,14,52,19.40
2018,05,05,14,53,19.40
2018,05,05,14,54,19.40
2018,05,05,14,55,19.40
2018,05,05,14,56,19.30
2018,05,05,14,57,19.20
2018,05,05,14,58,19.20
2018,05,05,14,59,19.20
2018,05,05,15,00,19.20
2018,05,05,15,01,19.20
2018,05,05,15,02,19.20
2018,05,05,15,03,19.20
2018,05,05,15,04,19.30
2018,05,05,15,05,19.30
2018,05,05,15,06,19.30
2018,05,05,15,07,19.30
2018,05,05,15,08,19.30
2018,05,05,15,09,19.30
2018,05,05,15,10,19.40
2018,05,05,15,11,19.40
2018,05,05,15,12,19.40
2018,05,05,15,13,19.40
2018,05,05,15,14,19.40
2018,05,05,15,15,19.40
2018,05,05,15,16,19.40
2018,05,05,15,17,19.40
2018,05,05,15,18,19.40
2018,05,05,15,19,19.30
2018,05,05,15,20,19.30
2018,05,05,15,21,19.30
2018,05,05,15,22,19.30
2018,05,05,15,23,19.40
2018,05,05,15,24,19.40
2018,05,05,15,25,19.40
2018,05,05,15,26,19.40
2018,05,05,15,27,19.40
2018,05,05,15,28,19.30
2018,05,05,15,29,19.40
2018,05,05,15,30,19.40
2018,05,05,15,31,19.50
2018,05,05,15,32,19.50
2018,05,05,15,33,19.60
2018,05,05,15,34,19.60
2018,05,05,15,35,19.70
2018,05,05,15,36,19.70
2018,05,05,15,37,19.70
2018,05,05,15,38,19.70
2018,05,05,15,39,19.60
2018,05,05,15,40,19.60
2018,05,05,15,41,19.70
2018,05,05,15,42,19.70
2018,05,05,15,43,19.70
2018,05,05,15,44,19.80
2018,05,05,15,45,19.80
2018,05,05,15,46,19.90
2018,05,05,15,47,20.00
2018,05,05,15,48,20.10
2018,05,05,15,49,20.20
2018,05,05,15,50,20.20
2018,05,05,15,51,20.20
2018,05,05,15,52,20.10
2018,05,05,15,53,20.10
2018,05,05,15,54,20.10
2018,05,05,15,55,20.00
2018,05,05,15,56,20.00
2018,05,05,15,57,20.00
2018,05,05,15,58,20.10
2018,05,05,15,59,20.10
2018,05,05,16,00,20.10
2018,05,05,16,01,20.20
2018,05,05,16,02,20.30
2018,05,05,16,03,20.30
2018,05,05,16,04,20.30
2018,05,05,16,05,20.30
2018,05,05,16,06,20.30
2018,05,05,16,07,20.40
2018,05,05,16,08,20.30
2018,05,05,16,09,20.30
2018,05,05,16,10,20.40
2018,05,05,16,11,20.40
2018,05,05,16,12,20.40
2018,05,05,16,13,20.40
2018,05,05,16,14,20.50
2018,05,05,16,15,20.40
2018,05,05,16,16,20.40
2018,05,05,16,17,20.30
2018,05,05,16,18,20.30
2018,05,05,16,19,20.30
2018,05,05,16,20,20.30
2018,05,05,16,21,20.30
2018,05,05,16,22,20.30
2018,05,05,16,23,20.30
2018,05,05,16,24,20.40
2018,05,05,16,25,20.50
2018,05,05,16,26,20.60
2018,05,05,16,27,20.70
2018,05,05,16,28,20.80
2018,05,05,16,29,20.80
2018,05,05,16,30,20.90
2018,05,05,16,31,20.90
2018,05,05,16,32,20.90
2018,05,05,16,33,20.90
2018,05,05,16,34,21.00
2018,05,05,16,35,21.00
2018,05,05,16,36,21.00
2018,05,05,16,37,21.00
2018,05,05,16,38,20.90
2018,05,05,16,39,20.80
2018,05,05,16,40,20.80
2018,05,05,16,41,20.70
2018,05,05,16,42,20.70
2018,05,05,16,43,20.70
2018,05,05,16,44,20.70
2018,05,05,16,45,20.80
2018,05,05,16,46,20.80
2018,05,05,16,47,20.80
2018,05,05,16,48,20.80
2018,05,05,16,49,20.80
2018,05,05,16,50,20.70
2018,05,05,16,51,20.70
2018,05,05,16,52,20.70
2018,05,05,16,53,20.60
2018,05,05,16,54,20.60
2018,05,05,16,55,20.60
2018,05,05,16,56,20.70
2018,05,05,16,57,20.70
2018,05,05,16,58,20.80
2018,05,05,16,59,20.80
2018,05,05,17,00,20.80
2018,05,05,17,01,20.90
2018,05,05,17,02,20.90
2018,05,05,17,03,20.80
2018,05,05,17,04,20.70
2018,05,05,17,05,20.70
2018,05,05,17,06,20.60
2018,05,05,17,07,20.50
2018,05,05,17,08,20.50
2018,05,05,17,09,20.40
2018,05,05,17,10,20.40
2018,05,05,17,11,20.40
2018,05,05,17,12,20.40
2018,05,05,17,13,20.40
2018,05,05,17,14,20.40
2018,05,05,17,15,20.50
2018,05,05,17,16,20.50
2018,05,05,17,17,20.40
2018,05,05,17,18,20.40
2018,05,05,17,19,20.40
2018,05,05,17,20,20.30
2018,05,05,17,21,20.30
2018,05,05,17,22,20.30
2018,05,05,17,23,20.40
2018,05,05,17,24,20.40
2018,05,05,17,25,20.40
2018,05,05,17,26,20.40
2018,05,05,17,27,20.40
2018,05,05,17,28,20.40
2018,05,05,17,29,20.40
2018,05,05,17,30,20.50
2018,05,05,17,31,20.50
2018,05,05,17,32,20.50
2018,05,05,17,33,20.50
2018,05,05,17,34,20.60
2018,05,05,17,35,20.60
2018,05,05,17,36,20.60
2018,05,05,17,37,20.60
2018,05,05,17,38,20.60
2018,05,05,17,39,20.50